User: anonymous   Login
Location: Unspecified
(0.0000°N, 0.0000°E)
Time: 10:24:00
(UTC+00:00)
Language:

UBAKUSAT - Orbit

View from above orbital plane
View from above orbital plane
View from above satellite
View from above satellite

Ground track
Ground track

The orbit data is extracted from the following two-line orbital elements,

1 43466U 98067NP  19049.91656176  .00014076  00000-0  16516-3 0  9997
2 43466  51.6368 220.3993 0000130  21.5093 338.5906 15.61777871 44176
Epoch (UTC): 18 February 2019 21:59:50
Eccentricity: 0.0000130
inclination: 51.6368°
perigee height: 382 km
apogee height: 382 km
right ascension of ascending node: 220.3993°
argument of perigee: 21.5093°
revolutions per day: 15.61777871
mean anomaly at epoch: 338.5906°
orbit number at epoch: 4417

The dashed part of the orbit path shows where the satellite is in the earth's shadow,  

DLR